{"data":{"norad_id":50166,"epoch":"2026-05-24T18:01:22.593216Z","epoch_age_seconds":99793,"freshness":"FRESH","line1":"1 50166U 21125L   26144.75095594  .00000592  00000+0  55255-4 0  9991","line2":"2 50166  53.2150 267.6010 0001413  80.8879 279.2273 15.08837797248075","mean_motion":15.08837797,"eccentricity":0.0001413,"inclination_deg":53.215,"raan_deg":267.601,"arg_perigee_deg":80.8879,"mean_anomaly_deg":279.2273,"bstar":5.5255e-5,"rev_number":24807,"period_min":95.437694022719,"perigee_km":538.77262521154,"apogee_km":540.72762011241,"semimajor_km":6917.887122662,"source":"CELESTRAK","updated_at":"2026-05-25T13:38:16.842878Z"}}